{"data":{"norad_id":68548,"epoch":"2026-05-25T00:12:34.915680Z","epoch_age_seconds":70234,"freshness":"FRESH","line1":"1 68548U 26070G   26145.00873745 -.00178299  00000+0 -54154-2 0  9996","line2":"2 68548  53.1617   7.8028 0000849  60.1772 299.9315 15.34262895  8242","mean_motion":15.34262895,"eccentricity":8.49e-5,"inclination_deg":53.1617,"raan_deg":7.8028,"arg_perigee_deg":60.1772,"mean_anomaly_deg":299.9315,"bstar":-0.0054154,"rev_number":824,"period_min":93.856144516876,"perigee_km":462.52995357049,"apogee_km":463.69159744277,"semimajor_km":6841.2477755066,"source":"CELESTRAK","updated_at":"2026-05-25T13:38:21.960499Z"}}